Preview of NWS' New Version of Forecast
This preview is not operational and should not be used for support decisions.

Regional Weather Roundup (RWR)

Issued by National Weather Service (NWS)

                            
000
ASUS43 KLSX 190757
RWRMO 

WEATHER SUMMARY FOR MISSOURI
NATIONAL WEATHER SERVICE SPRINGFIELD MO
300 AM CDT SUN MAY 19 2019

NOTE: "FAIR" INDICATES FEW OR NO CLOUDS BELOW 12,000 FEET WITH NO
       SIGNIFICANT WEATHER AND/OR OBSTRUCTIONS TO VISIBILITY.
       CURRENT SKY AND/OR WEATHER CONDITIONS ARE NOT AVAILABLE FOR
       CHILLICOTHE AND FARMINGTON.

MOZ001>031-035>038-043-044-053-054-190900-
...NORTHERN AND WESTERN MISSOURI...
  
CITY           SKY/WX    TMP DP  RH WIND       PRES   REMARKS
KANSAS CTY INT MOCLDY    60  60 100 S5        29.58R                  
LEE'S SUMMIT   LGT RAIN  62  59  90 S10       29.58F                  
ST JOSEPH      LGT RAIN  59  57  93 E13       29.57F                  
CHILLICOTHE      N/A     63  61  93 CALM      29.59S                  
KIRKSVILLE     CLOUDY    63  62  97 SW12G18   29.59S THUNDER          
     
$$
MOZ066>068-077>081-088>096-101>105-190900-
...SOUTHWEST MISSOURI...
  
CITY           SKY/WX    TMP DP  RH WIND       PRES   REMARKS
SPRINGFIELD    LGT RAIN  62  58  86 SW13G23   29.72R                  
               
$$
MOZ032>034-039>042-045>050-055>058-069>072-190900-
...CENTRAL MISSOURI...  
  
CITY           SKY/WX    TMP DP  RH WIND       PRES   REMARKS
COLUMBIA       NOT AVBL                                               
JEFFERSON CITY CLOUDY    63  60  90 S5        29.64S                  
ROLLA          CLOUDY    62  58  86 S13       29.67S                  
SEDALIA        CLOUDY    59  59 100 SW13G21   29.63S                  
WARRENSBURG    CLOUDY    61  59  94 S10       29.61S                  
               
$$
MOZ051-052-059>065-190900-
...EAST CENTRAL MISSOURI...
  
CITY           SKY/WX    TMP DP  RH WIND       PRES   REMARKS
ST LOUIS INTL  CLOUDY    67  59  75 S8        29.66F                  
                   
$$
MOZ072>076-082>087-097>100-106>115-190900-
...SOUTH CENTRAL AND SOUTHEAST MISSOURI...
  
CITY           SKY/WX    TMP DP  RH WIND       PRES   REMARKS
CAPE GIRARDEAU MOCLDY    66  61  84 S14       29.75R                  
POPLAR BLUFF   CLOUDY    65  64  97 S8        29.74F                  
                                       
$$